Location: B?ogocice
(50.2413°N, 20.2361°E)
Time: 22:58:10
(UTC+00:00)

SL-24 DEB - Pass Details

Date: 15 June 2024
Orbit: 651 x 679 km, 92.0° (Epoch: 18 July)

Event Time Altitude Azimuth Distance (km) Brightness Sun altitude
Rises 01:20:05 0° 4° (N) 2,989 8.6 -8.3°
Reaches altitude 10° 01:22:19 10° 4° (N) 2,076 7.7 -8.1°
Maximum altitude 01:26:52 84° 278° (W) 668 4.2 -7.7°
Drops below altitude 10° 01:31:27 10° 189° (S) 2,074 6.2 -7.2°
Enters shadow 01:32:33 - 189° (S) 2,528 6.7 -7.1°
